Tracking 30923 objects as of 1-Jul-2025
HD Live streaming from Space Station
objects crossing your sky now

DELTA 1 DEB

Track DELTA 1 DEB now!
10-day predictions


NORAD ID: 10766
Int'l Code: 1976-077BP
Perigee: 1,508.5 km
Apogee: 1,593.3 km
Inclination: 102.4 °
Period: 117.0 minutes
Semi major axis: 7921 km
RCS: 0.3637 m2 (medium)
Launch date: July 29, 1976
Source: United States (US)
Launch site: AIR FORCE WESTERN TEST RANGE (AFWTR)

Note: This is SATELLITE DEBRIS
Your satellite tracking list
COSMOS 2251 DEB
Track 1 satellite(s)




NASA's NSSDC Master Catalog

Two Line Element Set (TLE):
1 10766U 76077BP  25181.86491729 -.00000027  00000-0  15337-3 0  9992
2 10766 102.3544 156.1163 0053537 162.7036 252.8474 12.31286923199112
Source of the keplerian elements: AFSPC